This demonstration page uses our WeatherBlox Daily Observations layout. Learn more.

Left ArrowRight Arrow

Hourly Observations for June 10, 2015

Temp ( °F °C ) Dew Point ( °F °C ) Humidity (%) Winds ( mph kmh ) Pressure ( in mb ) Visibility ( mi km ) Precip ( " mm )
12:59 am 00:59 Mostly Cloudy 80 26.7 69 20.6 69 69 SW 7 11 29.84 1011 10 16 0.00 0.00
1:59 am 01:59 Mostly Cloudy 78 25.6 69 20.6 74 74 VRB 5 7 29.85 1011 10 16 0.00 0.00
2:59 am 02:59 Mostly Cloudy 78 25.6 70 21.1 76 76 W 5 7 29.86 1011 10 16 0.00 0.00
3:59 am 03:59 Mostly Cloudy 77 25 70 21.1 79 79 WSW 3 6 29.87 1011 8 13 0.00 0.00
4:59 am 04:59 Mostly Cloudy 77 25 70 21.1 79 79 W 3 6 29.88 1012 8 13 0.00 0.00
5:59 am 05:59 Mostly Sunny 76 24.4 69 20.6 79 79 W 3 6 29.90 1012 7 11 0.00 0.00
6:59 am 06:59 Partly Cloudy 77 25 70 21.1 79 79 Calm 29.92 1013 7 11 0.00 0.00
7:59 am 07:59 Partly Cloudy 80 26.7 67 19.4 64 64 N 5 7 29.93 1014 8 13 0.00 0.00
8:59 am 08:59 Mostly Sunny 82 27.8 63 17.2 53 53 NNE 9 15 29.94 1014 8 13 0.00 0.00
9:59 am 09:59 Mostly Sunny 83 28.3 63 17.2 51 51 ENE 7 11 29.95 1014 9 14 0.00 0.00
10:59 am 10:59 Mostly Sunny 83 28.3 63 17.2 51 51 ENE 8 13 29.96 1014 9 14 0.00 0.00
11:59 am 11:59 Sunny 85 29.4 61 16.1 45 45 NE 9 15 29.95 1014 10 16 0.00 0.00
12:59 pm 12:59 Sunny 87 30.6 58 14.4 37 37 ENE 12 19 29.95 1014 10 16 0.00 0.00
1:59 pm 13:59 Mostly Sunny 87 30.6 59 15 39 39 ENE 13 20 29.94 1014 10 16 0.00 0.00
2:59 pm 14:59 Mostly Sunny 87 30.6 62 16.7 43 43 ENE 13 20 29.92 1013 10 16 0.00 0.00
3:59 pm 15:59 Mostly Sunny 88 31.1 63 17.2 43 43 E 13 20 29.92 1013 10 16 0.00 0.00
4:59 pm 16:59 Sunny 88 31.1 65 18.3 46 46 ENE 12 19 29.91 1013 10 16 0.00 0.00
5:59 pm 17:59 Partly Cloudy 87 30.6 65 18.3 48 48 ENE 9 15 29.90 1013 10 16 0.00 0.00
6:59 pm 18:59 Partly Cloudy 88 31.1 68 20 52 52 SSE 5 7 29.91 1013 9 14 0.00 0.00
7:59 pm 19:59 Partly Cloudy 85 29.4 69 20.6 59 59 SE 5 7 29.91 1013 9 14 0.00 0.00
8:59 pm 20:59 Partly Cloudy 82 27.8 70 21.1 67 67 E 5 7 29.93 1013 10 16 0.00 0.00
9:59 pm 21:59 Mostly Clear 82 27.8 71 21.7 69 69 SE 3 6 29.94 1014 8 13 0.00 0.00
10:59 pm 22:59 Mostly Cloudy 84 28.9 71 21.7 65 65 SSW 7 11 29.95 1014 10 16 0.00 0.00
11:59 pm 23:59 Partly Cloudy 82 27.8 71 21.7 69 69 SSW 9 15 29.96 1014 10 16 0.00 0.00

Powered by AerisWeather